Regional Weather Roundup
Issued by NWS Burlington, VT

Home | Current Version | Previous Version | Text Only | Print | Product List | Glossary On
Versions: 1 2 3 4 5 6 7 8 9 10 11 12 13 14 15 16 17 18 19 20 21 22 23 24 25 26 27 28 29 30 31 32 33 34 35 36 37 38 39 40 41 42 43 44 45 46 47 48 49 50
000
ASUS41 KBTV 040730
RWRBTV
VERMONT REGIONAL WEATHER ROUNDUP
NATIONAL WEATHER SERVICE BURLINGTON VT
300 AM EDT FRI SEP 04 2015

NOTE: "FAIR" INDICATES FEW OR NO CLOUDS BELOW 12,000 FEET WITH NO
SIGNIFICANT WEATHER AND/OR OBSTRUCTIONS TO VISIBILITY.

* THESE REPORTS ARE NOT UNDER NWS QUALITY CONTROL AND/OR DO NOT
  REPORT WEATHER SUCH AS PRECIPITATION AND FOG.

VTZ001>019-040800-
_____VERMONT_____


CITY           SKY/WX    TMP DP  RH WIND       PRES   REMARKS
BURLINGTON     CLEAR     55  52  89 CALM      30.05R
MONTPELIER     MOCLDY    53  52  96 CALM      30.11S FOG
MORRISVILLE    PTCLDY    52  49  89 CALM      30.08R
ST. JOHNSBURY*   N/A     54  51  90 MISG      30.05R
LYNDONVILLE*   FAIR      52  50  91 CALM      30.08R
MIDDLEBURY*    FAIR      55  55 100 CALM      30.04R
RUTLAND*       CLEAR     61  50  67 CALM      30.04R
SPRINGFIELD    PTCLDY    61  60  97 CALM      30.03R
HIGHGATE*      FAIR      51  49  93 CALM      30.06R
NEWPORT*       FAIR      49  49  99 CALM      30.09R FOG
BENNINGTON     CLEAR     63  61  93 CALM      30.01R FOG
SUTTON*          N/A     57 N/A N/A MISG        N/A
GALLUP MILLS*    N/A     50 N/A N/A MISG        N/A
MT. MANSFIELD*   N/A     55 N/A N/A E2          N/A

_____LAKE CHAMPLAIN_____


CITY           SKY/WX    TMP DP  RH WIND       PRES   REMARKS
COLCHESTER RF*   N/A     68  57  68 N14         N/A
DIAMOND ISL*     N/A     68  52  56 NW15        N/A

$$

NYZ007-026>031-035-052-083-040800-
_____NORTHERN NEW YORK_____


CITY           SKY/WX    TMP DP  RH WIND       PRES   REMARKS
PLATTSBURGH    CLEAR     58  51  78 W5        30.05R
SARANAC LAKE   CLEAR     44  43  96 CALM      30.08R
MASSENA        CLEAR     59  48  67 E6        30.07R
OGDENSBURG*    CLEAR     61  57  88 E3        30.05R
POTSDAM*       CLEAR     59  55  88 E3        30.06R
STARK FALLS*     N/A     64 N/A N/A E6          N/A
WATERTOWN      CLEAR     59  58  96 NE6       30.01R FOG
FT DRUM        CLEAR     64  61  88 SE6       30.02S
ALBANY         PTCLDY    68  57  68 N5        29.99R
GLENS FALLS    CLEAR     61  55  81 CALM      30.01S

$$
NHZ002-005-011-040800-
_____NEW HAMPSHIRE_____


CITY           SKY/WX    TMP DP  RH WIND       PRES   REMARKS
LEBANON        CLEAR     61  58  90 CALM      30.03R
KEENE          MOCLDY    66  61  82 CALM      30.01R
MT WASHINGTON  PTCLDY    48  41  76 S8          N/A
PLYMOUTH       FOG       58  57  96 CALM      30.04R VSB 1
WHITEFIELD     CLEAR     50  48  93 CALM      30.06R

$$

_____REGIONAL QUEBEC LOCATIONS_____


CITY           SKY/WX    TMP DP  RH WIND       PRES   REMARKS
MONTREAL       CLEAR     61  46  59 N15       30.09R
QUEBEC CITY    CLEAR     54  48  82 N6        30.12R
SHERBROOKE     CLEAR     50  50 100 E5        30.09R

_____REGIONAL ONTARIO LOCATIONS_____


CITY           SKY/WX    TMP DP  RH WIND       PRES   REMARKS
OTTAWA         PTCLDY    59  54  82 NE8       30.09R

______KEY______
VSB  - VISIBILITY IN MILES
WCI  - WIND CHILL INDEX
HX   - HEAT INDEX
$$
NNNN



USA.gov is the U.S. government's official web portal to all federal, state and local government web resources and services.